[[{"header":{"parameterUnit":"m.s-1","parameterCategory":1,"la1":30.2991,"la2":30.254,"lo1":-89.0895,"lo2":-89.0444,"dy":0.0017,"dx":0.0017,"nx":28,"ny":28,"refTime":"2025-07-07T09:00:00:Z","depth":0,"parameterNumber":2,"parameterNumberName":"U-component_of_WINDS"},"data":[0,0,0,0,0,0,0,0,0,0,0,0,0,0,0,0,0,0,0,0,0,0,0,0,0,0,0,0,0,0,0,0,0,0,0,0,0,0,0,0,0,0,0,0,0,0,0,0,0,0,0,0,0,0,0,0,0,0,-0.28,-0.2801,0,-0.282,-0.282,-0.282,-0.286,-0.2861,-0.2862,-0.2863,-0.288,-0.288,-0.288,0,0,0,0,0,0,0,0,0,0,0,0,0,-0.2796,-0.2796,-0.28,-0.2801,-0.2801,-0.282,-0.282,-0.282,-0.286,-0.2861,-0.2862,-0.2863,-0.288,-0.288,-0.288,0,0,0,0,0,0,0,0,0,0,0,0,0,-0.2804,-0.2795,-0.28,-0.2823,-0.2825,-0.282,-0.282,-0.282,-0.286,-0.2861,-0.2862,-0.2863,-0.2881,-0.288,-0.288,-0.2853,0,0,-0.2878,-0.2878,0,0,0,0,0,0,0,0,-0.2804,-0.2805,-0.2819,-0.2821,-0.2824,-0.2839,-0.2825,-0.2831,-0.286,-0.2847,-0.2863,-0.2864,-0.2865,-0.2866,-0.2867,-0.2854,-0.2854,-0.2878,-0.2878,-0.2878,-0.2878,0,0,0,0,0,0,0,-0.2803,-0.2804,-0.2808,-0.282,-0.2822,-0.2831,-0.2834,-0.2826,-0.2849,-0.2848,-0.2851,-0.2853,-0.2867,-0.2867,-0.2868,-0.2855,-0.2878,-0.2878,-0.2878,-0.2878,-0.2817,-0.2816,0,0,0,0,0,0,-0.28,-0.2803,-0.2807,-0.2808,-0.2817,-0.2831,-0.2834,-0.2833,-0.2849,-0.2853,-0.2852,-0.2854,-0.2868,-0.2868,-0.2869,-0.2835,-0.2878,-0.2878,-0.2877,-0.2818,-0.2817,-0.2815,0,0,0,0,0,0,-0.2799,-0.28,-0.2807,-0.2807,-0.2808,-0.2829,-0.2828,-0.2832,-0.2833,-0.2852,-0.2856,-0.2848,-0.2869,-0.2869,-0.2856,-0.2837,-0.2877,-0.2877,-0.282,-0.2818,-0.2816,-0.277,0,0,0,0,0,0,-0.2799,-0.2799,-0.279,-0.2806,-0.2808,-0.2794,-0.2827,-0.2832,-0.2832,-0.2836,-0.285,-0.2853,-0.287,-0.2856,-0.2855,-0.2837,-0.2877,-0.2822,-0.2819,-0.2817,-0.2773,-0.2767,-0.2761,0,0,0,0,0,-0.2799,-0.2776,-0.2789,-0.2789,-0.2797,-0.2793,-0.2794,-0.2814,-0.2831,-0.2821,-0.2833,-0.2853,-0.284,-0.2855,-0.2854,-0.2835,-0.2823,-0.282,-0.2817,-0.2776,-0.2768,-0.2761,0,0,0,0,0,0,-0.2756,-0.2779,-0.2793,-0.2776,-0.2782,-0.28,-0.2787,-0.2805,-0.2806,-0.2809,-0.2834,-0.2837,-0.2819,-0.2827,-0.2843,-0.2808,-0.2834,-0.2831,-0.2804,-0.2796,-0.279,-0.2787,-0.2876,0,0,0,0,0,-0.2745,-0.2741,-0.2761,-0.2743,-0.2746,-0.2766,-0.2765,-0.278,-0.2787,-0.279,-0.2801,-0.2807,-0.2804,-0.2801,-0.28,-0.2776,-0.2778,-0.2763,-0.2756,-0.2751,-0.2747,-0.2732,-0.2724,-0.2805,-0.2805,-0.2805,0,0,-0.2721,-0.2733,-0.2729,-0.2735,-0.2741,-0.2735,-0.2768,-0.276,-0.2755,-0.2789,-0.2775,-0.2784,-0.2792,-0.2773,-0.2765,-0.2778,-0.2725,-0.2747,-0.2743,-0.2741,-0.2728,-0.272,-0.2713,-0.2803,-0.2804,-0.2804,0,0,-0.2674,-0.2684,-0.2669,-0.2675,-0.2685,-0.2698,-0.2695,-0.271,-0.2717,-0.2705,-0.2729,-0.2723,-0.2719,-0.2722,-0.2723,-0.2677,-0.2694,-0.2677,-0.2643,-0.2628,-0.2621,-0.2616,-0.2595,-0.2588,-0.2673,-0.2673,-0.2673,0,-0.2642,-0.2634,-0.2659,-0.2649,-0.2649,-0.2681,-0.2664,-0.2669,-0.2678,-0.2677,-0.2693,-0.2686,-0.2694,-0.2674,-0.2663,-0.2664,-0.2658,-0.2673,-0.2621,-0.2615,-0.261,-0.2591,-0.2584,-0.267,-0.2671,-0.2671,-0.2671,0,-0.2594,-0.2588,-0.2574,-0.2581,-0.2581,-0.2568,-0.2589,-0.2586,-0.2602,-0.2613,-0.2599,-0.261,-0.261,-0.2608,-0.2623,-0.2589,-0.2597,-0.2617,-0.2642,-0.2599,-0.2581,-0.2575,-0.2667,-0.2668,-0.2668,-0.2669,0,0,-0.2517,-0.2538,-0.2533,-0.2535,-0.2549,-0.2544,-0.2532,-0.2533,-0.2527,-0.2533,-0.2522,-0.2517,-0.2535,-0.2536,-0.2552,-0.254,-0.2498,-0.256,-0.2561,-0.2545,-0.2457,-0.2439,-0.243,-0.2511,-0.251,-0.2509,-0.2455,0,-0.2469,-0.245,-0.2471,-0.2447,-0.244,-0.247,-0.2459,-0.2465,-0.2476,-0.2471,-0.2484,-0.2478,-0.2504,-0.2505,-0.2494,-0.2505,-0.248,-0.251,-0.2497,-0.2497,-0.249,-0.2422,-0.2403,-0.2351,-0.2449,-0.2448,-0.2447,0,-0.241,-0.2412,-0.2387,-0.24,-0.2398,-0.2388,-0.2389,-0.2385,-0.2392,-0.2401,-0.2403,-0.2422,-0.241,-0.2438,-0.242,-0.244,-0.2437,-0.2441,-0.244,-0.2436,-0.2466,-0.2411,-0.2336,-0.2326,-0.2437,-0.2438,-0.2439,0,-0.2352,-0.2349,-0.2332,-0.2334,-0.2351,-0.2342,-0.2349,-0.2358,-0.2356,-0.2357,-0.2356,-0.2356,-0.2354,-0.2353,-0.2372,-0.2391,-0.235,-0.2381,-0.2354,-0.2353,-0.234,-0.2339,-0.2258,-0.2345,-0.2346,-0.2346,-0.2346,0,-0.2293,-0.2275,-0.2306,-0.2295,-0.2275,-0.2301,-0.228,-0.229,-0.2298,-0.2288,-0.2316,-0.2306,-0.2333,-0.2326,-0.2341,-0.2321,-0.2322,-0.2326,-0.2329,-0.2321,-0.232,-0.2316,-0.2318,-0.2344,-0.2344,-0.2345,-0.2345,0,-0.2223,-0.2243,-0.2226,-0.2243,-0.2247,-0.2231,-0.2245,-0.2235,-0.2249,-0.2237,-0.2235,-0.2256,-0.2248,-0.2268,-0.2264,-0.2274,-0.2244,-0.2256,-0.2241,-0.2243,-0.2213,-0.2213,-0.2122,-0.2109,-0.221,-0.2209,-0.2208,0,-0.2182,-0.2168,-0.2184,-0.218,-0.2185,-0.2178,-0.2176,-0.2201,-0.2198,-0.2205,-0.2193,-0.2189,-0.2186,-0.2173,-0.2187,-0.2183,-0.2192,-0.216,-0.2191,-0.2182,-0.2186,-0.2184,-0.2181,-0.2152,-0.2151,-0.215,-0.2149,0,-0.2105,-0.2116,-0.2113,-0.2112,-0.2109,-0.211,-0.2113,-0.2108,-0.2135,-0.2129,-0.2122,-0.212,-0.2116,-0.211,-0.211,-0.2115,-0.2134,-0.214,-0.2133,-0.2121,-0.2111,-0.2111,-0.2218,-0.2141,-0.2142,-0.2142,-0.2143,-0.2143,-0.2045,-0.2034,-0.2042,-0.2037,-0.2042,-0.2044,-0.2034,-0.2047,-0.2041,-0.2039,-0.2056,-0.2044,-0.2051,-0.2053,-0.2056,-0.2047,-0.2061,-0.2052,-0.2048,-0.2044,-0.2037,-0.2117,-0.2048,-0.2048,-0.2048,-0.2048,-0.2049,0,-0.1966,-0.1973,-0.1969,-0.1971,-0.1966,-0.1989,-0.1993,-0.1986,-0.1977,-0.1982,-0.1978,-0.1969,-0.1963,-0.1977,-0.1973,-0.1962,-0.1971,-0.196,-0.1958,-0.1958,-0.2027,-0.2031,-0.1952,-0.1953,-0.1953,-0.1953,-0.1953,-0.1953,-0.1924,-0.1904,-0.1916,-0.1898,-0.1906,-0.1895,-0.1895,-0.1896,-0.19,-0.1888,-0.1883,-0.1893,-0.1901,-0.1897,-0.1892,-0.1896,-0.1891,-0.1875,-0.1882,-0.1945,-0.1954,-0.1963,-0.1967,-0.1875,-0.1875,-0.1813,-0.1813,-0.1812]},{"header":{"parameterUnit":"m.s-1","parameterCategory":1,"la1":30.2991,"la2":30.254,"lo1":-89.0895,"lo2":-89.0444,"dy":0.0017,"dx":0.0017,"nx":28,"ny":28,"refTime":"2025-07-07T09:00:00:Z","depth":0,"parameterNumber":3,"parameterNumberName":"V-component_of_WINDS"},"data":[0,0,0,0,0,0,0,0,0,0,0,0,0,0,0,0,0,0,0,0,0,0,0,0,0,0,0,0,0,0,0,0,0,0,0,0,0,0,0,0,0,0,0,0,0,0,0,0,0,0,0,0,0,0,0,0,0,0,0.5805,0.5805,0,0.58,0.58,0.58,0.5758,0.5757,0.5756,0.5755,0.575,0.5751,0.5752,0,0,0,0,0,0,0,0,0,0,0,0,0,0.5779,0.578,0.5805,0.5805,0.5805,0.58,0.58,0.58,0.5759,0.5757,0.5756,0.5755,0.575,0.5751,0.5752,0,0,0,0,0,0,0,0,0,0,0,0,0,0.5784,0.578,0.5805,0.5784,0.5782,0.58,0.58,0.58,0.5759,0.5757,0.5756,0.5754,0.575,0.5751,0.5752,0.5791,0,0,0.5756,0.5757,0,0,0,0,0,0,0,0,0.5784,0.5785,0.5787,0.5785,0.5783,0.5778,0.5789,0.5797,0.5759,0.5768,0.5755,0.5754,0.5761,0.5761,0.5764,0.579,0.579,0.5756,0.5757,0.5757,0.5758,0,0,0,0,0,0,0,0.5783,0.5785,0.5803,0.5787,0.5785,0.5774,0.5773,0.579,0.5773,0.5767,0.5764,0.5764,0.576,0.5763,0.5763,0.579,0.5756,0.5757,0.5758,0.5758,0.585,0.5851,0,0,0,0,0,0,0.5786,0.5785,0.5803,0.5803,0.578,0.5776,0.5775,0.5781,0.5773,0.577,0.5765,0.5762,0.5761,0.5762,0.5763,0.5809,0.5757,0.5759,0.5759,0.5848,0.585,0.5852,0,0,0,0,0,0,0.5786,0.5788,0.5803,0.5793,0.5794,0.5778,0.5786,0.5782,0.5785,0.5771,0.5768,0.5771,0.576,0.5761,0.5784,0.5808,0.5759,0.576,0.5846,0.5849,0.5851,0.5901,0,0,0,0,0,0,0.5785,0.5788,0.5803,0.5794,0.5795,0.5825,0.5787,0.5783,0.5787,0.5783,0.5776,0.5774,0.5759,0.5783,0.5786,0.5809,0.5761,0.5844,0.5847,0.585,0.5897,0.5904,0.5911,0,0,0,0,0,0.5784,0.5817,0.5804,0.5806,0.5813,0.5827,0.5827,0.581,0.5789,0.5804,0.5795,0.5774,0.5804,0.5785,0.5788,0.5812,0.5842,0.5846,0.585,0.5894,0.5903,0.5911,0,0,0,0,0,0,0.5829,0.5815,0.5801,0.5831,0.583,0.582,0.5838,0.582,0.5825,0.5821,0.5798,0.5797,0.5824,0.582,0.5799,0.585,0.582,0.5824,0.5852,0.5861,0.5868,0.5869,0.5762,0,0,0,0,0,0.5842,0.5854,0.5841,0.587,0.587,0.5854,0.5859,0.5846,0.5844,0.5844,0.5837,0.5836,0.5846,0.5852,0.586,0.5895,0.5894,0.5913,0.592,0.5926,0.5931,0.5951,0.596,0.5864,0.5864,0.5864,0,0,0.587,0.5864,0.5873,0.5878,0.5876,0.589,0.5854,0.587,0.588,0.5846,0.5869,0.5863,0.5861,0.5891,0.5903,0.5888,0.5957,0.5931,0.5936,0.5937,0.5956,0.5965,0.5973,0.5867,0.5866,0.5866,0,0,0.5928,0.5924,0.5948,0.5946,0.5944,0.5933,0.5938,0.593,0.5926,0.5948,0.5923,0.5934,0.5951,0.5951,0.5953,0.6011,0.5992,0.6014,0.6052,0.6072,0.6079,0.6086,0.6109,0.6117,0.6018,0.6018,0.6019,0,0.5963,0.5983,0.5962,0.598,0.5984,0.5953,0.5977,0.5977,0.5977,0.5981,0.5963,0.5984,0.598,0.601,0.6025,0.6026,0.6033,0.6016,0.608,0.6086,0.6092,0.6114,0.6122,0.6021,0.6021,0.6021,0.602,0,0.6027,0.6041,0.6061,0.6062,0.6068,0.6089,0.6071,0.6079,0.6065,0.6056,0.6079,0.6073,0.608,0.6085,0.6071,0.6114,0.6105,0.6084,0.6054,0.6104,0.6124,0.6132,0.6025,0.6024,0.6024,0.6023,0,0,0.6115,0.6104,0.6112,0.6113,0.6108,0.6119,0.6138,0.6145,0.6153,0.6153,0.6171,0.6185,0.6166,0.6168,0.6154,0.617,0.6219,0.6147,0.6147,0.6163,0.6268,0.6286,0.6296,0.6206,0.6207,0.6208,0.6269,0,0.6173,0.6207,0.6188,0.6225,0.6239,0.6209,0.6226,0.6225,0.6217,0.6227,0.6218,0.623,0.6202,0.6204,0.6219,0.621,0.6241,0.6205,0.6223,0.6224,0.6227,0.6306,0.6325,0.6383,0.6277,0.6278,0.6279,0,0.6246,0.625,0.6289,0.6281,0.6286,0.6302,0.6308,0.6317,0.6315,0.6308,0.6311,0.6292,0.6312,0.628,0.6307,0.6283,0.6289,0.6286,0.6287,0.6291,0.6256,0.6314,0.6401,0.6411,0.6291,0.629,0.6289,0,0.6309,0.6325,0.635,0.6351,0.6343,0.6355,0.6352,0.6348,0.6354,0.6358,0.6362,0.6368,0.6372,0.6377,0.6361,0.6339,0.6391,0.6357,0.6387,0.6388,0.6401,0.6401,0.6493,0.6401,0.64,0.64,0.64,0,0.6378,0.6403,0.6379,0.6394,0.6422,0.64,0.6427,0.6421,0.6418,0.6433,0.6406,0.642,0.6396,0.6408,0.6395,0.642,0.6422,0.6417,0.6414,0.6422,0.6423,0.6427,0.6424,0.6403,0.6402,0.6402,0.6401,0,0.6455,0.6439,0.6465,0.6455,0.6453,0.6474,0.6465,0.648,0.6469,0.6488,0.6491,0.6475,0.6487,0.647,0.6481,0.6472,0.6508,0.6497,0.6509,0.6507,0.6539,0.6537,0.6639,0.6652,0.6549,0.6549,0.655,0,0.6501,0.652,0.6512,0.652,0.6519,0.6531,0.6537,0.6515,0.6522,0.6522,0.6537,0.6547,0.6554,0.6575,0.6565,0.6573,0.6564,0.6599,0.6565,0.6572,0.6568,0.6568,0.6571,0.6607,0.6608,0.6609,0.661,0,0.6586,0.6577,0.6586,0.6593,0.6601,0.6605,0.6607,0.6615,0.6592,0.6602,0.6614,0.662,0.6631,0.6642,0.6647,0.6644,0.6624,0.662,0.6628,0.6637,0.6644,0.6643,0.6531,0.6619,0.6618,0.6617,0.6617,0.6616,0.6651,0.6667,0.6664,0.6675,0.6674,0.6677,0.6691,0.6682,0.6692,0.67,0.6686,0.6702,0.67,0.6705,0.6704,0.6717,0.6702,0.6712,0.6716,0.6719,0.6726,0.664,0.6717,0.6717,0.6717,0.6717,0.6716,0,0.6736,0.6733,0.6743,0.6748,0.6757,0.6735,0.6737,0.6746,0.6761,0.676,0.6768,0.6783,0.6793,0.6783,0.6792,0.6804,0.6795,0.6808,0.6808,0.6808,0.6737,0.6731,0.6815,0.6815,0.6815,0.6815,0.6815,0.6815,0.6782,0.6809,0.68,0.6825,0.6821,0.6838,0.6841,0.6843,0.6843,0.6861,0.6869,0.6862,0.6858,0.6866,0.6875,0.6872,0.6878,0.6894,0.6888,0.6822,0.6813,0.6804,0.6798,0.6894,0.6894,0.6958,0.6958,0.6959]}]]